Location: ???????
(60.4355°N, 46.7752°E)
Time: 18:10:38
(UTC+00:00)

Daily predictions for brighter satellites

Satellite Brightness Start Highest point End
(mag) Time Altitude Azimuth Time Altitude Azimuth Time Altitude Azimuth
COSMOS 2428 3.1 13:17:55 10° NW 13:23:41 74° SW 13:29:25 10° SSE
Cosmos 1745 Rocket 4.2 13:20:36 10° SSW 13:26:45 77° WNW 13:32:56 10° NNE
SAR-Lupe-4 3.9 13:23:53 10° NNE 13:27:29 71° WNW 13:31:04 10° SSW
Meteor 1-28 Rocket 3.3 13:24:00 10° NNE 13:27:50 89° WNW 13:31:38 10° SSW
CZ-4C R/B 3.6 13:25:59 10° N 13:29:31 60° WNW 13:33:05 10° SSW
Cosmos 2084 3.6 13:26:05 10° WSW 13:30:35 76° NNW 13:35:02 10° ENE
Cosmos 1943 4.1 13:26:34 10° NW 13:31:33 31° NNE 13:36:32 10° ENE
Meteor 2-10 Rocket 4.4 13:29:34 10° N 13:34:20 29° NE 13:38:54 10° ESE
Cosmos 1833 Rocket 3.6 13:29:17 10° W 13:34:38 41° NNW 13:39:59 10° NE
H-2A R/B 2.8 13:31:01 10° SSE 13:34:50 62° ENE 13:38:44 10° N
Ariane Rocket 4.3 13:31:38 10° E 13:35:14 20° NE 13:38:51 10° N
Cosmos 1812 Rocket 3.9 13:36:57 10° N 13:41:18 47° ENE 13:45:38 10° SE
Cosmos 2221 4.4 13:39:49 10° NNE 13:41:24 12° NE 13:42:59 10° ENE
Cosmos 1892 Rocket 3.7 13:37:21 10° S 13:41:44 57° E 13:46:07 10° NNE
COBE Rocket 4.3 13:39:28 10° NNE 13:44:28 50° E 13:49:30 10° S
Cosmos 2184 Rocket 4.3 13:38:57 10° SSE 13:44:47 47° E 13:50:39 10° NNE
Cosmos-2242 3.8 13:45:21 10° N 13:49:12 29° ENE 13:52:59 10° ESE
Cosmos 2251 Rocket 4.0 13:45:17 10° NNW 13:50:15 39° NE 13:55:14 10° ESE
Cosmos 1818 3.7 13:45:50 10° WSW 13:51:19 77° NNW 13:56:33 11° ENE
Cosmos 1939 Rocket 4.0 13:48:15 10° ESE 13:51:22 23° NE 13:54:33 10° N
Cosmos 1898 Rocket 3.6 13:47:51 10° SSW 13:53:11 87° ESE 13:58:30 10° NNE
Cosmos 2154 Rocket 4.5 13:47:36 10° SSE 13:53:17 38° E 13:58:58 10° NNE
H-2A R/B 3.4 13:51:15 10° E 13:54:34 18° NE 13:57:58 10° N
Helios 1A Rocket 3.8 13:51:00 10° S 13:54:58 53° WSW 13:58:59 10° NNW
COSMOS 2406 4.3 13:50:08 10° WNW 13:55:12 32° NNW 14:00:13 10° NE
Cosmos 1937 Rocket 3.5 13:52:44 10° SSW 13:58:00 77° ESE 14:03:21 10° NE
YAOGAN 1 3.2 13:54:58 10° ESE 13:58:53 34° ENE 14:02:48 10° N
NOSS 2-1 (E) 4.4 13:57:27 10° WNW 14:02:04 72° SSW 14:08:29 10° SE
Cosmos 2082 Rocket 3.1 13:57:39 10° W 14:02:57 39° NNW 14:08:13 10° NE
Cosmos 2058 Rocket 4.0 13:59:41 10° NNW 14:03:56 51° W 14:08:10 10° S
Cosmos 1726 4.4 14:01:22 10° NNW 14:04:30 27° W 14:07:37 10° SSW
Cosmos 2237 Rocket 2.4 14:01:23 10° NW 14:07:03 80° SW 14:12:41 10° SSE
Cosmos 1707 4.2 14:04:50 10° SW 14:08:30 37° WNW 14:12:12 10° N
ATLAS CENTAUR R/B 1.4 14:04:08 10° WNW 14:08:31 69° NNE 14:12:32 10° ESE
Cosmos 2150 Rocket 4.3 14:03:48 10° S 14:08:42 47° ESE 14:13:32 11° NE
COSMOS 2487 2.7 14:06:02 10° SW 14:09:30 69° WNW 14:12:58 10° NNE
Okean 1-7 Rocket 3.6 14:05:21 10° S 14:09:45 86° ESE 14:14:15 10° NNE
In-Cosmos 22 4.3 14:05:09 10° SSW 14:10:28 76° WNW 14:15:48 10° NNE
NOSS 3-3 (A) 4.4 14:04:09 10° W 14:10:49 70° N 14:17:51 13° E
NOSS 3-3 (C) 4.4 14:04:14 10° W 14:10:55 70° N 14:17:56 13° E
Iridium 4 Rocket 4.2 14:07:12 10° SSW 14:11:14 45° WNW 14:15:30 10° N
Cosmos 2333 Rocket 3.8 14:06:48 10° NW 14:12:08 40° WSW 14:17:22 10° S
Cosmos 2074 Rocket 4.0 14:06:07 10° S 14:12:21 68° E 14:18:37 10° NNE
Cosmos 1674 2.6 14:11:04 10° SSW 14:14:47 86° W 14:18:33 10° NNE
Cosmos 1242 Rocket 2.9 14:12:06 10° S 14:15:27 42° E 14:18:48 11° NNE
Cosmos 1602 Rocket 4.0 14:12:08 10° SSE 14:16:15 40° E 14:20:20 10° NNE
SMAP 3.6 14:13:32 10° S 14:18:09 63° WSW 14:22:49 10° NNW
Cosmos 1125 Rocket 4.1 14:14:45 10° S 14:19:29 37° ESE 14:23:32 14° NE
COSMO-SKYMED 1 3.6 14:16:52 11° NE 14:20:21 26° E 14:24:01 10° SSE
Cosmos 1300 2.9 14:16:50 10° NNW 14:20:40 73° W 14:24:29 10° S
CZ-4 R/B 1.5 14:18:17 10° SE 14:22:17 54° ENE 14:26:24 10° N
CZ-2C R/B 4.4 14:20:19 15° E 14:23:25 23° NE 14:27:49 10° N
NOAA 12 4.2 14:18:33 10° SSE 14:23:48 79° WSW 14:29:06 10° NNW
SL-24 R/B - RUBIN 2 4.3 14:18:15 10° WSW 14:23:55 89° SSE 14:29:02 17° ENE
CZ-4C R/B 4.2 14:18:22 10° WNW 14:24:45 42° SW 14:32:05 10° SSE
Nadezhda 3 Rocket 4.1 14:19:15 10° NNW 14:25:33 87° WSW 14:31:53 10° S
CSL-04 Rocket 3.8 14:20:55 10° SE 14:26:19 57° ENE 14:31:47 10° NNW
ATLAS 5 CENTAUR R/B 1.9 14:22:45 10° SW 14:27:11 66° SE 14:30:48 19° ENE
SeaSat 1 4.0 14:25:06 12° NE 14:28:27 24° N 14:32:21 10° WNW
SL-16 R/B 2.2 14:23:31 10° NW 14:29:15 76° NE 14:34:57 10° SE
Envisat 3.2 14:25:01 10° SSE 14:30:06 77° WSW 14:35:14 10° NNW
Cosmos 1689 Rocket 2.9 14:27:39 10° N 14:30:33 51° WNW 14:33:26 10° SW
YAOGAN 6 2.5 14:27:49 10° SSE 14:31:31 85° ENE 14:35:11 10° NNW
CZ-2D R/B 3.6 14:28:29 10° SE 14:32:07 41° ENE 14:35:47 10° N
Cosmos 1758 Rocket 4.3 14:29:43 10° SSE 14:33:30 30° E 14:36:25 15° NE
Meteor 1-24 Rocket 3.6 14:28:29 10° S 14:33:49 79° ESE 14:39:21 10° NNE
Cosmos 1356 Rocket 4.1 14:30:24 10° N 14:34:02 31° ENE 14:36:59 14° ESE
Cosmos 1626 2.1 14:30:26 10° S 14:34:05 59° E 14:37:46 10° NNE
Cosmos 839 Rocket 4.2 14:28:33 10° WSW 14:34:42 69° NNW 14:39:48 18° ENE
Cosmos 372 Rocket 3.9 14:30:14 10° SSW 14:35:21 71° ESE 14:39:57 13° NE
Cosmos 1455 2.4 14:32:00 10° N 14:35:45 47° ENE 14:39:27 10° SE
CZ-4 R/B 4.3 14:31:52 10° SSE 14:35:59 75° ENE 14:40:08 10° NNW
Cosmos 1727 Rocket 4.2 14:30:12 10° N 14:36:09 44° ENE 14:42:02 10° SE
Cosmos 1626 Rocket 3.4 14:33:50 10° S 14:38:09 71° E 14:42:29 10° NNE
Cosmos 1603 4.0 14:35:50 10° NW 14:41:22 47° NNE 14:45:16 19° E
CZ-4B R/B 3.2 14:38:41 10° N 14:41:22 27° WNW 14:44:03 10° WSW
USA 267 3.7 14:37:30 18° E 14:42:15 48° SSE 14:48:33 10° SW
Cosmos 407 Rocket 4.2 14:37:23 10° NNW 14:42:18 35° NE 14:44:58 22° E
KORONAS-FOTON 4.5 14:38:55 10° SSW 14:42:38 54° WNW 14:46:23 10° N
Cosmos 2219 3.9 14:37:43 10° S 14:42:38 32° ESE 14:45:19 22° ENE
Cosmos 1607 4.2 14:39:06 10° SSW 14:45:01 52° SE 14:48:56 22° ENE
Okean O Rocket 4.4 14:42:40 10° SW 14:46:05 21° W 14:49:32 10° NW
Cosmos 1833 4.3 14:40:21 10° SW 14:46:05 82° NW 14:50:51 16° NE
Okean-O 3.1 14:42:06 10° S 14:46:30 63° WSW 14:50:57 10° NNW
H-2A R/B 4.4 14:43:54 10° N 14:47:09 20° NW 14:50:25 10° W
Cosmos 1340 Rocket 3.8 14:44:25 10° NNW 14:48:15 49° W 14:52:06 10° S
Cosmos 1271 Rocket 2.7 14:44:36 10° SSW 14:48:21 81° WNW 14:52:11 10° NNE
Timation 2 Rocket 4.0 14:45:45 10° SSW 14:51:50 62° ESE 14:56:33 19° NE
Meteor 2-5 Rocket 4.0 14:46:53 10° SSW 14:52:25 68° WNW 14:58:06 10° NNE
Resurs 01 Rocket 3.4 14:55:33 16° NNE 14:55:33 16° NNE 14:57:28 10° N
Cosmos 2297 Rocket 3.0 14:50:11 10° SSE 14:55:00 30° ESE 14:56:37 25° E
SL-8 Rocket 4.3 14:49:07 10° SSE 14:55:02 45° E 15:00:57 10° NNE
Meteor 2-17 Rocket 4.4 14:49:29 10° S 14:55:32 64° E 15:01:36 10° NNE
SJ 16-02 2.7 14:51:35 10° WSW 14:55:43 36° NW 14:59:32 12° NNE
SL-16 R/B 4.5 14:53:21 10° NNE 14:57:48 21° NNW 15:02:16 10° W
SL-14 R/B 3.3 14:53:55 10° SSW 14:57:55 81° WNW 15:01:54 10° NNE
SJ-6B 4.3 14:59:19 20° NNE 14:59:19 20° NNE 15:01:12 10° N
ATLAS CENTAUR R/B 4.3 14:51:47 10° SW 14:58:09 63° SSE 15:09:52 21° ENE
Cosmos 1825 Rocket 3.8 14:54:08 10° SSE 14:58:14 42° E 15:00:42 21° NE
Cosmos 2341 Rocket 4.0 14:53:23 10° S 14:59:37 59° E 15:05:50 10° NNE
Cosmos 2227 Rocket 2.9 15:02:27 10° S 15:07:24 32° ESE 15:08:36 29° E
SKYMED 2 3.6 15:05:26 17° NNE 15:08:44 58° ESE 15:13:01 10° S
NOAA 11 4.2 15:04:03 10° SSE 15:09:34 88° WSW 15:15:06 10° NNW
Cosmos 2084 3.6 15:05:58 10° WNW 15:10:26 65° N 15:11:57 39° ENE
Ariane Rocket 3.0 15:08:25 10° SE 15:13:24 61° ENE 15:18:27 10° NNW
HJ-1C 3.6 15:14:29 49° NE 15:14:29 49° NE 15:17:24 10° N
Cosmos 1943 3.3 15:11:08 10° NW 15:16:42 56° NE 15:19:07 32° E
Meteor 2-10 Rocket 3.6 15:11:34 10° NNW 15:17:04 81° WSW 15:22:18 10° S
Cosmos 2298 Rocket 4.3 15:13:06 10° SW 15:18:25 69° NW 15:22:24 18° NNE
ARGOS 3.5 15:17:05 30° ESE 15:19:08 44° ENE 15:24:14 10° NNW
Cosmos 1833 Rocket 4.0 15:15:02 10° WNW 15:19:55 29° N 15:22:19 21° NE
Cosmos 2221 2.8 15:16:02 10° N 15:20:06 43° ENE 15:20:06 43° ENE
SJ-11-01 4.3 15:20:02 19° SE 15:23:17 59° ENE 15:27:57 10° NNW
Cosmos 1339 Rocket 4.5 15:17:31 10° NNW 15:23:38 83° W 15:29:44 10° S
Cosmos 1939 Rocket 3.0 15:22:01 10° S 15:25:57 74° WSW 15:29:59 10° NNW
Cosmos-2242 3.7 15:22:47 10° NNW 15:27:04 56° W 15:31:17 10° S
Cosmos 2218 Rocket 4.0 15:23:36 10° S 15:29:50 61° E 15:36:09 10° NNE
Cosmos 2251 Rocket 3.8 15:27:39 10° NW 15:32:55 67° WSW 15:38:10 10° SSE
H-2A R/B 2.1 15:31:30 39° ESE 15:33:04 54° ENE 15:38:06 10° NNW
Cosmos 864 Rocket 4.4 15:27:29 10° S 15:33:28 59° E 15:39:30 10° NNE
YAOGAN 1 3.4 15:30:39 10° S 15:34:53 51° W 15:39:09 10° NNW
Cosmos 1818 4.0 15:30:04 10° W 15:35:26 53° N 15:37:12 38° NE
Cosmos 2154 Rocket 4.4 15:32:22 10° SSW 15:38:36 63° WNW 15:44:49 10° N
COSMOS 2406 4.2 15:36:03 10° NW 15:41:03 30° NNE 15:42:17 28° NE
Cosmos 2123 Rocket 4.2 15:36:59 10° N 15:43:06 47° ENE 15:44:21 42° E
Cosmos 614 Rocket 3.9 15:41:52 10° NNW 15:47:05 69° NE 15:48:10 53° ESE
ATLAS CENTAUR R/B 2.4 15:43:20 10° WNW 15:47:19 41° SW 15:48:52 28° S
USA 32 4.3 15:42:09 10° SSW 15:47:21 67° WNW 15:52:37 10° N
Cosmos 2082 Rocket 3.5 15:43:35 10° WNW 15:48:26 28° N 15:50:04 25° NNE
Cosmos 1242 Rocket 4.5 15:47:22 10° WSW 15:50:30 28° WNW 15:52:52 15° N
Cosmos 1959 Rocket 4.3 15:45:38 10° S 15:51:47 77° E 15:57:54 10° NNE
ADEOS Rocket 3.2 15:47:05 10° NNE 15:53:17 54° E 16:00:08 10° S
Cosmos 1023 Rocket 4.5 15:48:07 10° NNW 15:53:23 59° NE 15:53:47 57° ENE
Cosmos 1000 Rocket 4.3 15:48:34 10° NNW 15:54:46 73° ENE 15:59:17 20° SSE
COSMO-SKYMED 1 2.9 15:54:04 21° N 15:56:53 63° WNW 16:01:11 10° SSW
CZ-4 R/B 3.5 15:54:01 10° SSW 15:57:35 28° W 16:01:14 10° NNW
Cosmos 967 Rocket 4.5 15:51:58 10° WNW 15:58:29 77° NNE 16:00:17 50° ESE
SPOT 3 Rocket 3.4 16:00:13 64° E 16:00:29 65° ENE 16:05:37 10° NNW
Cosmos 1125 Rocket 3.9 15:56:14 10° SW 16:01:24 61° NW 16:03:50 31° NNE
Cosmos 1140 Rocket 3.4 15:56:42 10° NNW 16:01:58 64° NE 16:02:07 64° ENE
NOSS 3-3 (A) 4.3 15:55:12 10° WNW 16:02:13 85° SSW 16:05:19 41° SE
NOSS 3-3 (C) 4.3 15:55:18 10° WNW 16:02:19 85° SSW 16:05:24 41° SE
CZ-2C R/B 3.1 16:01:22 55° ESE 16:02:28 69° ENE 16:08:10 10° NNW
Cosmos 1842 Rocket 3.7 15:58:14 10° NNW 16:02:42 75° W 16:04:25 37° S
Meteor 1-27 4.3 15:58:16 10° NNW 16:03:52 77° WSW 16:09:25 10° S
Cosmos 2366 rocket 3.9 15:57:47 10° S 16:04:02 86° ESE 16:10:25 10° NNE
Meteor 2-2 Rocket 4.3 15:58:23 10° NNW 16:04:28 85° ENE 16:08:00 27° SSE
SeaSat 1 3.8 16:04:52 26° NNE 16:04:56 26° NNE 16:08:58 10° NW
Cosmos 1953 Rocket 3.6 16:01:43 10° SSW 16:06:13 79° WNW 16:07:10 55° N
Cosmos 1954 Rocket 4.2 16:03:51 10° NNW 16:08:49 56° NNE 16:08:49 56° NNE
Cosmos 1626 4.5 16:06:40 10° WSW 16:09:41 23° WNW 16:12:21 12° N
Cosmos 1455 4.3 16:07:56 10° NNW 16:11:12 27° W 16:14:27 10° SSW
Cosmos 1356 Rocket 4.3 16:07:21 10° NNW 16:11:13 47° W 16:13:17 24° SSW
Cosmos 1758 Rocket 4.3 16:07:01 10° SW 16:11:14 50° WNW 16:13:37 24° N
ATLAS 5 CENTAUR R/B 2.0 16:07:14 10° W 16:11:56 67° N 16:12:21 64° NNE
SL-16 R/B 3.7 16:07:58 10° NW 16:13:02 34° WSW 16:18:05 10° S
Meteor 1-11 4.1 16:08:50 10° S 16:13:54 65° SE 16:13:54 65° SE
MetOp-A 4.2 16:15:04 59° NNE 16:15:04 59° NNE 16:19:50 10° NNW
Cosmos 1190 Rocket 3.9 16:15:06 10° NNW 16:20:27 89° ENE 16:20:35 85° SE
Cosmos 724 4.1 16:17:14 10° SW 16:23:08 74° SE 16:23:12 74° SE
Cosmos 407 Rocket 3.5 16:19:29 10° NW 16:24:52 80° WSW 16:25:12 76° SSW
Meteor 2-12 Rocket 4.2 16:19:15 10° S 16:25:16 75° E 16:31:21 10° NNE
Cosmos 1603 3.9 16:20:08 10° NW 16:25:48 66° WSW 16:27:12 49° S
USA 267 3.2 16:24:50 58° SE 16:25:55 67° S 16:32:27 10° WSW
Cosmos 2219 3.2 16:20:45 10° SW 16:26:24 79° NW 16:27:16 64° NNE
Cosmos 2082 4.3 16:23:11 10° SSW 16:27:02 43° S 16:27:02 43° S
Resurs 01 Rocket 3.5 16:33:06 22° N 16:33:06 22° N 16:34:48 10° NNW
Cosmos 676 Rocket 4.2 16:26:22 10° NNW 16:31:01 64° N 16:31:01 64° N
Cosmos 1607 3.9 16:25:59 10° WSW 16:32:10 74° NNW 16:33:04 64° NNE
Cosmos 839 Rocket 4.4 16:29:22 10° WNW 16:35:30 55° N 16:36:25 51° NE
SJ 16-02 3.7 16:32:47 10° WNW 16:35:34 16° NNW 16:36:32 15° N
Cosmos 2297 Rocket 2.1 16:32:53 10° SW 16:38:28 84° W 16:38:28 84° W
ATLAS 5 CENTAUR R/B 3.8 16:34:45 10° WNW 16:38:51 51° SSW 16:43:09 31° SSE
Cosmos 2227 Rocket 2.3 16:45:24 10° SW 16:50:28 70° WSW 16:50:28 70° WSW
Cosmos 2221 4.1 16:53:47 10° NNW 16:57:00 32° WNW 16:57:00 32° WNW
ARGOS 3.8 16:58:36 48° SW 16:59:24 52° W 17:04:42 10° NNW
Cosmos 1943 3.8 16:55:22 10° NW 17:00:49 51° WSW 17:00:58 51° WSW
Terra 4.3 17:07:14 13° N 17:07:14 13° N 17:07:46 10° N
Cosmos 1833 Rocket 3.9 17:00:04 10° NW 17:04:00 33° N 17:04:00 33° N
H-2A R/B 3.2 17:12:07 36° WSW 17:12:44 38° W 17:17:33 10° NNW
COSMOS 2406 4.5 17:20:56 10° NW 17:24:21 34° NNW 17:24:21 34° NNW
Cosmos 2082 Rocket 3.7 17:28:42 10° NW 17:31:54 28° NNW 17:31:54 28° NNW
ADEOS Rocket 3.8 17:32:53 10° NNE 17:38:53 51° WNW 17:45:32 10° SW
ATLAS 5 CENTAUR R/B 4.0 17:52:02 10° WNW 17:53:53 24° WNW 17:53:53 24° WNW
USA 267 4.4 18:12:11 36° W 18:12:11 36° W 18:15:57 10° W
Cosmos 2297 Rocket 4.3 18:18:04 10° W 18:20:19 22° WNW 18:20:19 22° WNW
Cosmos 2278 Rocket 4.4 23:35:24 20° NNE 23:35:24 20° NNE 23:37:26 10° NE
Cosmos 2263 Rocket 4.2 23:55:22 22° E 23:55:22 22° E 23:57:34 10° E
